sat.trackr.live / text

‹ back to catalog

STARLINK-37016

NORAD 68288 · 2026-055AC

PAYLOAD ACTIVE UNKNOWN

§ Identity

Operator
Country
US
Launch date
2026-03-19
Launch site
AFETR
Launch vehicle
Mass (kg)
RCS (m²)

Purposes: comms

External: N2YO · Heavens-Above · Gunter

§ Orbital elements

Epoch: 2026-05-25T00:00:02.000160Z

Period
93.85 min
Inclination
53.1578°
Eccentricity
0.0000638
Mean motion
15.34369727 rev/d
Perigee alt
462.4 km
Apogee alt
463.2 km
Semi-major
6,840.9 km
B*
1.3459e-3
RAAN
323.9965°
Arg perigee
64.9370°
Mean anomaly
19.4537°
Rev number
596

§ Raw data

STARLINK-370161 68288U 26055AC  26145.00002315  .00045327  00000+0  13459-2 0  99932 68288  53.1578 323.9965 0000638  64.9370  19.4537 15.34369727  5962

JSON: /api/v1/satellites/68288 · /tle

For live sub-satellite position, see the globe view (requires WebGL).

§ Visibility from observer

Set your observer location to see the next 7 days of passes ≥ 10°. The values pass through the URL so the page stays shareable.

No JS? Fill the form by hand. The geolocation button needs JavaScript.